Tracking 19177 objects as of 25-May-2018
HD Live streaming from Space Station
objects crossing your sky now

FENGYUN 1C DEB

Track FENGYUN 1C DEB now!
10-day predictions


NORAD ID: 30503
Int'l Code: 1999-025AHR
Perigee: 848.0 km
Apogee: 863.0 km
Inclination: 99.0 °
Period: 101.9 minutes
Semi major axis: 7226 km
RCS: 0.0055 m2 (small)
Launch date: May 10, 1999
Source: People's Republic of China (PRC)
Launch site: Taiyaun Space Center, China (TSC)

Note: This is SATELLITE DEBRIS
aabbcc
Your satellite tracking list
Your tracking list is empty




NASA's NSSDC Master Catalog

Two Line Element Set (TLE):
1 30503U 99025AHR 18144.29762154  .00000118  00000-0  87273-4 0  9991
2 30503  98.9954 252.2461 0010416 116.7056 307.2433 14.13221896583765
Source of the keplerian elements: AFSPC